Regional Weather Roundup
Issued by NWS New Orleans/Baton Rouge, LA

Home | Current Version | Previous Version | Text Only | Print | Product List | Glossary On
Versions: 1 2 3 4 5 6 7 8 9 10 11 12 13 14 15 16 17 18 19 20 21 22 23 24 25 26 27 28 29 30 31 32 33 34 35 36 37 38 39 40 41 42 43 44 45 46 47 48 49 50
000
ASUS44 KLIX 250711
RWRLIX
NEW ORLEANS REGIONAL WEATHER ROUNDUP
NATIONAL WEATHER SERVICE NEW ORLEANS LA
200 AM CDT WED MAY 25 2016

NOTE: "FAIR" INDICATES FEW OR NO CLOUDS BELOW 12,000 FEET WITH NO
      SIGNIFICANT WEATHER AND/OR OBSTRUCTIONS TO VISIBILITY.
      SKY/WX - SKY CONDITION AND SIGNIFICANT WEATHER.
      TMP - AIR TEMPERATURE.     DP    - DEWPOINT TEMPERATURE.
      RH  - RELATIVE HUMIDITY.   PRES  - PRESSURE.
      HI  - HEAT INDEX.          WCI   - WIND CHILL INDEX.

*  THESE STATIONS ARE NOT NWS OR FAA STATIONS AND ARE NOT UNDER
   NWS QUALITY CONTROL.

LAZ038-040-048-061>063-065>067-069-250800-
SOUTHEAST LOUISIANA

CITY           SKY/WX    TMP DP  RH WIND       PRES   REMARKS
N.O. AUDUBON     N/A     75  73  92 MISG        N/A
N.O. INTL ARPT CLEAR     76  71  85 SE9       30.09F
N.O. LAKEFRONT PTCLDY    76  70  82 S7        30.10F
N.O. DOWNTOWN*   N/A     77  71  82 S8        30.10F
RESERVE*         N/A     75  73  91 SE5       30.08F
SLIDELL        CLEAR     69  67  93 CALM      30.09F
BATON ROUGE    PTCLDY    75  71  87 SE7       30.07F
BOOTHVILLE     CLEAR     74  71  91 SE3       30.11F
BELLE CHASSE   PTCLDY    75  72  90 SE6       30.10F
BOGALUSA*        N/A     67  64  89 CALM      30.12F
GALLIANO*      MOSUNNY   76  73  88 SE5       30.09F
NEW ROADS*     CLOUDY    74  72  92 SE3       30.07S
GONZALES*        N/A     74  73  96 SE5       30.06F
HAMMOND*       CLEAR     72  68  88 SE5       30.08F
HOUMA*           N/A     74  73  98 E5        30.08F
PORT FOURCHON* PTSUNNY   79  73  83 SE12      30.10F

$$

MSZ070-080>082-250800-
SOUTHERN MISSISSIPPI

CITY           SKY/WX    TMP DP  RH WIND       PRES   REMARKS
MCCOMB         CLEAR     71  67  87 SE8       30.10F
GULFPORT       PTCLDY    71  67  87 CALM      30.10S
BILOXI         CLEAR     75  70  84 S6        30.10S
PASCAGOULA     CLEAR     62  61  96 CALM      30.11F FOG

$$

COASTAL OBSERVATIONS
LAKE AND NEARSHORE STATIONS

STATION/POSITION TIME  TEMP    WIND        PRES    WAVE
                       AIR SEA DIR/SP/G            HT/PER
                 (UTC) (F)     (DEG/KT/KT) (MB)    (FT/S)
PASCAGOULA       0600   77     160/  6/  9 1019.3
WAVELAND YACHT   0600   78 79  180/  7/  9 1019.3
GRAND ISLE       0600   78 82  160/  6/ 12 1019.3
SOUTHWEST PASS   0600          140/ 11/ 15   N/A
NEW CANAL        0600   76 80  160/  4/  9 1018.6
SHELL BEACH      0600   75 81  140/  5/  6 1019.5

OFFSHORE STATIONS

STATION/POSITION TIME  TEMP    WIND        PRES    WAVE
                       AIR SEA DIR/SP/G            HT/PER
                 (UTC) (F)     (DEG/KT/KT) (MB)    (FT/S)
64 S DAUPHIN ISL 0600   77 77  140/  8/ 10 1019.9

$$




USA.gov is the U.S. government's official web portal to all federal, state and local government web resources and services.